SPACEMOBILE-SSR04 DEB, 62372

Orbit data source: Space-Track

SPACEMOBILE-SSR04 DEB, 62372 is space debris in LEO originally from a launch on Thu, 12 Sep 2024 UTC launched from the Air Force Eastern Test Range (AFETR). Debris objects in space refer to the collection of defunct objects orbiting the Earth. Examples of debris include non-operational satellites, rocket bodies, and fragments generated from explosions, collisions, or faulty payload assembly.

Loading next visibility...
Identifier
62372, 2024-163J
Orbit
LEO
Country
Flag of USUS
Related business
Manufacturer
AST & Science
Mission
Spacecraft
Bus & Motor
BW3 LVA, Unknown motor
Mass
150 kg wet, 150 kg dry
Launch date (UTC)
2024-09-12 (1 year ago)
Launch vehicle
Unknown
Launch site
Air Force Eastern Test Range (AFETR)
Object type
Payload
Rocket body
Debris
Shape & HBR
Cyl, 3.8 m
Radar Cross Section
1.963 m², Large (>1 m²)

Expand to show TLE details & history
Last TLE update: 11 hours ago

TLE from 11 hours ago
0 SPACEMOBILE-SSR04 DEB
1 62372U 24163J   25340.60547603  .00029027  00000-0  91029-3 0  9995
2 62372  52.9875  97.9513 0005031 285.3902  74.6542 15.32836203 65349
Epoch: 2025-12-06T14:31Z
TLE epoch observation values (Epoch: 2025-12-06T14:31:53.128Z)
Latitude
0.00003°
Longitude
164.34914°
Altitude
467.327 km
Speed
7.634 km/s
True Right ascension
06h 31m 48s
True Declination
0° 00' 00"
Sunlit
Object was in full shadow at epoch
Visualization orbit readout
Latitude
Unknown
Longitude
Unknown
Altitude
Unknown
Speed
Unknown
Apparent Right ascension
Unknown
Apparent Declination
Unknown
Sunlit
N/A
Visualization observer readout
Local Sidereal Time
23:31:14
Azimuth
Unknown
Elevation
Unknown
Doppler factor
Unknown
Orbital elements
Apogee altitude
471.084 km
Perigee altitude
464.196 km
Semi-major axis
6,845.777 km
Eccentricity
0.0005
Inclination
52.9875°
RAAN
97.9513°
Arg. of periapsis
285.3902°
True anomaly
74.7098°
Mean anomaly
74.6542°
Eccentric anomaly
74.682°
Mean motion
3.83186 °/min
Orbital period
93.95 mins
BSTAR
0.00091029
Loading maneuver chart data...
Computing Atmospheric mass density...
Loading historical data...
Loading historical data...
Loading historical data...
Loading historical data...
Loading historical data...
Loading historical data...
Loading historical data...

Documentation

Showing up to 5 results
|